Вернуться в каталог

CZ-6A DEB

АктивенPO
NORAD 61136·DEBRIS·🇨🇳 China

Запущен Aug 6, 2024 с Taiyuan Satellite Launch Center

Loading…

Ближайшие Пролёты (ближайшие 24 часа)

TLE

СвежийSource: Space-Track

Эпоха: Sep 14, 2026, 11:45 UTC

1 61136U 24140QE  26257.48995198  .00002001  00000-0  82545-3 0  9993
2 61136  89.1092 274.4789 0085134 301.7257  57.5658 14.24578648107020

Отслеживайте CZ-6A DEB в реальном времени с AllMySat

Download on the App Store